Regional Weather Roundup
Issued by NWS Glasgow, MT

Home | Current Version | Previous Version | Text Only | Print | Product List | Glossary On
Versions: 1 2 3 4 5 6 7 8 9 10 11 12 13 14 15 16 17 18 19 20 21 22 23 24 25 26 27 28 29 30 31 32 33 34 35 36 37 38 39 40 41 42 43 44 45 46 47 48 49 50
000
ASUS45 KGGW 181215
RWRGGW
HOURLY REGIONAL WEATHER ROUNDUP FOR NORTHEAST MONTANA
NATIONAL WEATHER SERVICE GLASGOW MONTANA
500 AM MST MON DEC 18 2017

NOTE: "FAIR" INDICATES FEW OR NO CLOUDS BELOW 12,000 FEET WITH NO
SIGNIFICANT WEATHER AND/OR OBSTRUCTIONS TO VISISBILITY.

NORTHEAST MONTANA


CITY           SKY/WX    TMP DP  RH WIND       PRES   REMARKS
GLASGOW        LGT RAIN  35  29  78 SW5       29.58F
6HR MIN TEMP:  29; 6HR MAX TEMP:  35; 6HR PCP:  0.02;

PLENTYWOOD       N/A     32  25  75 W9          N/A
WOLF POINT     FRZ RAIN  33  27  78 W8        29.61F
JORDAN           N/A     33  28  81 SE3       29.61F
WINNETT          N/A     36  26  67 NE3         N/A
SIDNEY         CLOUDY    35  23  61 SW10      29.61S
GLENDIVE       CLOUDY    36  23  59 SW9       29.64F
MALTA            N/A     37  30  75 S6          N/A
SCOBEY           N/A     33  20  59 CALM      29.56F

FORT PECK REPORTS


CITY           SKY/WX    TMP DP  RH WIND       PRES   REMARKS
FORT PECK        N/A     40  34  79 SW10        N/A
THE PINES        N/A     40  32  73 SW7         N/A

SOUTHEAST MONTANA


CITY           SKY/WX    TMP DP  RH WIND       PRES   REMARKS
BILLINGS       CLOUDY    35  23  61 SW25      29.71F
MILES CITY     CLOUDY    35  24  64 SE3       29.67F
BAKER          PTCLDY    32  23  69 W15       29.66F
LIVINGSTON     CLOUDY    35  29  78 SW36G59   29.77S

CENTRAL MONTANA


CITY           SKY/WX    TMP DP  RH WIND       PRES   REMARKS
HAVRE          CLOUDY    41  28  60 W13       29.56S
LEWISTOWN      CLOUDY    42  28  57 SW30G39   29.63F
GREAT FALLS    CLOUDY    42  26  53 SW29G39   29.64S
CUT BANK       CLOUDY    35  28  75 W16       29.58S
HELENA         CLOUDY    28  23  81 S6        29.76F
BUTTE          CLOUDY    39  25  57 SW10G21   29.86S
BOZEMAN        CLOUDY    32  24  72 VRB3      29.83S

WESTERN MONTANA


CITY           SKY/WX    TMP DP  RH WIND       PRES   REMARKS
MISSOULA       MIX PCPN  28  25  88 E3        29.89R
KALISPELL      NOT AVBL

NORTH DAKOTA


CITY           SKY/WX    TMP DP  RH WIND       PRES   REMARKS
WILLISTON      CLOUDY    36  23  59 SW13      29.58S
DICKINSON      CLOUDY    33  22  63 SW17      29.60F
MINOT          CLOUDY    38  23  55 SW8       29.53F
BISMARCK       CLOUDY    31  23  72 SW5       29.64F

SOUTHERN SASKATCHEWAN


CITY           SKY/WX    TMP DP  RH WIND       PRES   REMARKS
REGINA         MOCLDY    30  23  74 W8        29.49F
MOOSE JAW      CLOUDY    34  21  60 W12       29.51F
ESTEVAN        CLOUDY    30  25  80 SW10      29.52S
SWIFT CURRENT  LGT SNOW  32  30  93 W7        29.49F




USA.gov is the U.S. government's official web portal to all federal, state and local government web resources and services.